Dewpoint
58 54 54 52 46 48 42 40 29 34 32 25 21 28 26 25 28 24 24 23 23 23 28 27 25 28 25 25 23 23 24 23 23 22 28 43 47 52 59 64 63 64 64 66 69 70 71 71 72 73 73 73 73 73 73 73 73 73 72 72 71 71 70 70 70 70 70 70 69 68 68 68 68 68 68 69 70 70 70 70 70 70 70 71 70 70 70 69 69 69 68 68 67 66 65 64 62
55 54 50 49 50 46 42 38 31 28 25 22 22 19 22 24 21 22 22 25 28 28 28 27 27 26 25 24 23 26 24 24 24 28 29 36 39 47 53 62 63 65 65 67 69 70 71 72 71 72 73 73 74 73 73 73 73 73 73 72 71 71 70 70 70 70 70 70 69 69 68 68 68 68 68 68 69 70 70 69 69 70 71 70 70 71 70 69 69 68 68 67 66 65 64 62 61
53 52 51 47 43 41 39 34 31 25 23 22 22 21 24 24 23 22 23 22 23 23 25 26 27 28 27 27 25 17 25 27 25 25 31 42 40 35 57 61 64 65 65 68 69 70 71 71 70 72 73 73 73 73 73 73 72 73 72 72 71 71 70 70 70 70 70 70 69 69 69 68 68 68 68 68 68 69 69 69 69 69 70 70 70 70 69 69 68 68 68 67 66 65 64 62 60
54 53 47 45 42 40 34 32 27 24 22 22 20 21 22 23 22 24 23 23 23 24 26 28 27 30 27 24 26 24 21 23 25 34 34 42 40 41 58 62 65 65 66 68 69 70 70 70 70 72 73 73 73 74 73 73 73 73 72 72 71 71 70 70 70 70 70 70 69 69 69 68 68 69 69 68 68 69 69 69 69 69 70 70 70 69 68 68 68 67 67 66 65 64 63 61 60
51 53 46 43 40 34 33 28 24 25 20 19 18 20 26 26 23 24 23 24 24 25 28 30 27 27 28 32 28 27 26 30 30 37 41 47 51 53 58 63 65 66 67 68 69 70 71 69 69 70 73 73 73 74 74 73 73 73 73 72 71 71 71 70 70 70 70 69 69 69 69 68 69 68 68 68 68 68 69 69 68 69 70 70 69 68 68 67 66 66 66 65 64 63 61 60 59
47 46 47 44 35 36 26 26 23 23 23 21 18 24 19 21 23 25 23 24 26 27 26 26 25 27 26 24 26 24 27 25 35 38 47 48 55 57 61 64 65 66 66 68 69 70 71 68 69 70 73 73 73 73 73 73 73 73 72 72 71 71 71 70 70 71 70 69 69 69 69 69 69 69 69 68 68 68 69 69 68 69 69 69 68 67 67 66 65 65 65 65 64 63 60 58 59
45 42 40 38 37 35 29 25 23 22 26 21 23 17 19 18 23 22 22 26 28 26 27 28 24 26 25 24 27 26 28 36 36 37 49 52 55 59 63 64 65 65 66 68 69 70 70 68 70 71 72 72 73 73 73 73 73 73 72 72 71 71 71 70 70 71 70 69 69 68 69 69 68 69 68 68 68 68 68 69 68 69 69 68 67 66 65 65 65 64 65 65 64 63 60 57 58
48 38 37 34 32 33 27 25 25 25 26 20 22 20 19 20 21 24 22 26 23 22 24 26 27 23 28 25 27 27 31 33 41 42 48 56 57 61 63 64 64 65 66 67 68 69 68 68 69 70 71 72 73 73 73 73 73 73 72 72 71 71 71 71 70 70 70 69 69 69 69 68 68 69 69 68 68 68 68 68 68 69 68 67 66 66 65 65 62 66 65 65 64 61 59 58 58
39 39 38 35 28 28 26 26 25 25 24 26 25 28 38 37 23 24 24 26 25 24 21 22 27 20 19 22 25 29 30 35 36 49 56 58 60 62 64 64 64 64 66 67 68 69 69 67 68 70 70 72 72 73 73 73 73 73 72 72 71 71 71 71 70 70 70 69 69 70 69 69 69 69 69 68 69 68 68 68 68 68 67 67 66 65 64 63 65 66 65 64 61 59 57 57 57
40 36 32 30 31 24 24 24 24 24 25 23 22 21 21 24 23 26 24 22 24 18 20 24 26 24 25 23 22 27 24 32 35 53 57 57 59 61 62 62 63 64 65 67 68 68 69 66 67 68 69 71 72 72 73 73 73 73 72 72 71 72 71 71 70 70 70 70 69 69 70 70 70 69 69 68 69 68 68 68 68 68 67 66 66 65 65 64 63 66 64 63 60 58 56 56 56
34 37 35 29 25 24 26 23 22 27 24 26 25 26 25 23 23 21 23 20 19 18 18 24 24 27 21 23 24 26 30 35 50 51 51 52 58 62 62 60 62 64 65 67 68 68 68 69 66 67 68 69 70 71 72 73 73 73 72 72 71 71 72 71 71 71 71 70 70 70 70 70 70 70 69 69 69 68 68 68 68 67 66 66 66 65 64 64 63 66 64 63 61 58 57 55 55
29 33 34 26 23 24 24 22 23 24 28 24 19 19 29 24 25 20 20 19 20 18 19 26 23 24 23 23 35 28 26 28 35 44 47 50 58 58 62 59 62 63 65 66 68 68 69 69 69 67 66 67 68 70 70 71 72 72 72 72 71 71 71 71 71 71 71 71 71 70 69 70 70 70 69 69 68 68 68 68 68 67 66 66 66 65 64 62 62 65 64 63 61 59 57 54 54
33 32 25 23 23 26 25 24 25 32 25 21 19 21 22 19 20 19 19 18 19 18 21 22 25 23 22 30 30 27 25 27 33 41 50 52 57 56 57 58 59 62 64 65 67 67 68 68 69 69 68 65 66 67 68 69 70 70 71 72 71 71 71 71 72 71 71 71 71 71 71 70 70 70 69 69 68 68 68 67 68 67 67 66 65 64 65 65 66 65 63 62 61 60 56 54 54
34 33 27 25 26 24 23 26 24 23 23 23 21 20 21 21 21 20 19 21 19 20 22 22 24 23 26 23 23 21 20 29 38 46 51 54 54 56 57 55 57 60 62 65 66 66 67 67 68 69 69 69 70 68 66 67 68 70 70 70 70 70 70 71 71 70 70 70 70 69 69 69 69 70 70 69 68 68 69 69 68 67 67 66 66 64 65 66 65 64 63 62 61 59 56 54 54
36 35 29 27 22 25 25 24 26 22 22 25 21 23 20 26 20 20 21 21 20 20 21 25 33 24 17 21 19 26 23 30 41 50 52 53 54 55 56 57 57 57 60 63 64 66 66 67 68 69 69 69 70 70 70 69 66 68 69 69 69 69 69 69 69 69 68 69 69 68 67 66 66 67 68 68 69 68 67 68 69 69 67 66 65 65 65 65 65 64 63 62 60 58 56 54 53
37 28 26 22 21 21 24 25 27 24 23 20 24 23 22 22 21 22 22 22 24 30 23 22 26 22 23 22 28 24 25 41 48 51 51 51 53 52 54 54 55 57 60 62 63 64 65 66 67 68 69 69 70 70 70 70 66 64 66 67 67 68 68 68 68 67 66 66 66 65 63 65 65 67 64 68 66 67 66 67 67 67 68 65 64 65 66 65 64 63 63 62 60 59 56 55 55
36 32 19 16 15 22 24 24 23 22 24 26 25 21 21 22 24 22 25 23 22 23 23 23 25 25 24 21 24 26 30 40 47 47 47 47 49 51 52 52 52 54 53 57 61 63 64 65 66 67 68 69 70 70 70 70 69 64 65 64 65 66 66 66 67 65 62 63 64 61 60 68 69 69 67 69 63 69 64 63 66 67 68 66 66 66 66 65 64 63 63 61 59 56 55 53 52
32 24 22 17 14 22 25 24 23 26 24 22 23 22 23 23 23 26 24 23 22 23 23 23 22 25 23 24 29 30 33 34 34 35 36 38 39 40 40 41 44 44 47 48 51 55 61 65 65 66 67 68 69 69 69 69 69 66 69 69 69 68 65 64 67 70 64 68 59 64 68 68 69 68 68 66 68 68 65 61 63 65 67 65 65 66 65 65 64 64 62 61 58 54 50 48 44
27 26 22 16 21 23 26 25 25 22 23 23 23 24 23 24 24 24 21 21 22 22 23 22 20 21 23 27 32 32 33 34 34 34 34 34 34 34 35 37 37 37 38 40 43 48 54 60 65 66 67 67 68 69 69 69 69 69 69 69 69 66 67 68 69 68 68 68 68 68 67 68 68 68 68 66 66 63 66 60 62 64 65 64 64 66 65 65 64 63 62 60 56 52 49 46 41
32 25 21 24 24 23 27 26 25 23 24 23 24 26 24 25 24 25 26 22 23 23 21 21 20 21 23 26 32 33 33 33 34 34 33 34 34 34 34 35 35 37 37 39 41 47 47 52 57 64 66 67 67 68 69 69 69 69 69 69 69 69 69 68 69 68 67 67 67 68 68 68 68 68 63 61 63 66 65 60 60 62 62 61 61 64 64 65 64 63 62 59 54 49 46 40 37
30 25 22 24 26 23 22 28 26 24 24 25 25 25 24 25 24 26 23 22 22 22 23 22 21 21 25 30 32 32 32 32 33 33 33 34 34 34 34 35 36 36 38 40 43 41 43 44 47 56 65 67 67 68 68 69 69 69 69 69 69 68 69 69 69 68 67 67 67 68 68 67 68 68 67 66 67 67 65 64 65 64 65 64 59 63 64 63 62 61 60 54 52 50 47 39 36
31 30 27 26 28 26 24 28 30 27 26 24 26 25 26 26 26 24 24 22 21 23 24 22 24 29 31 31 32 32 32 32 32 33 33 33 34 34 34 35 36 37 39 41 41 41 43 44 47 49 56 65 67 67 68 68 69 69 68 69 69 69 68 68 68 68 68 68 68 67 66 66 67 67 67 67 67 66 65 65 65 63 63 63 62 61 62 62 61 61 59 55 50 48 45 40 41
26 26 28 28 28 26 28 26 26 24 25 24 26 26 23 24 23 24 23 22 23 25 27 28 28 31 31 31 32 31 32 32 32 32 33 33 33 34 34 34 35 36 39 41 42 42 44 45 47 48 51 61 66 67 68 68 68 68 68 68 68 68 67 68 68 68 67 68 68 67 67 67 66 67 66 66 66 65 65 66 64 64 63 62 60 59 60 61 60 59 58 55 49 47 43 42 42
25 21 28 28 29 26 27 28 27 25 26 24 25 23 24 22 21 23 23 24 25 30 30 30 30 31 31 31 31 31 32 32 32 32 33 33 33 33 35 34 35 37 40 41 42 43 46 47 49 51 52 58 65 67 67 67 68 68 68 66 68 67 67 68 68 68 67 66 66 67 66 67 67 66 66 65 65 64 64 64 62 63 63 63 60 59 59 59 59 58 57 53 50 48 45 43 42
29 25 28 29 29 28 28 27 25 25 25 25 25 23 21 21 21 22 22 21 25 29 30 30 30 30 31 31 31 31 31 32 32 32 33 34 34 34 36 35 36 38 39 40 42 45 47 48 52 53 53 58 64 66 66 67 67 68 67 67 67 66 68 68 67 67 67 67 66 65 65 66 66 66 66 66 64 64 64 63 61 62 62 62 60 60 59 59 58 57 56 53 51 48 45 43 43
29 24 28 26 24 23 22 22 22 22 22 22 22 21 21 21 23 22 21 21 24 30 30 30 30 30 30 30 31 31 31 31 32 32 32 33 33 33 34 34 35 36 38 40 42 45 46 49 54 55 56 60 63 66 66 66 66 66 66 66 66 65 67 68 67 66 66 67 67 66 65 65 65 65 65 65 64 64 64 63 62 63 63 62 60 59 58 58 57 56 55 53 51 49 46 44 43
27 27 27 24 22 21 24 21 22 22 22 22 20 21 22 22 22 18 21 21 26 29 29 29 29 29 30 30 30 30 30 31 31 31 32 32 32 33 34 34 34 35 38 40 41 43 46 50 54 56 58 60 63 64 65 65 65 65 65 66 66 66 66 66 67 67 66 66 66 65 65 63 63 64 65 64 63 64 63 62 61 59 61 61 61 60 58 57 57 56 55 54 54 51 49 43 43
23 23 22 22 21 22 22 22 21 22 21 22 21 20 23 21 24 18 19 22 26 29 29 29 29 29 29 29 29 30 30 30 30 31 31 31 32 32 33 33 34 35 37 39 40 43 46 49 53 55 57 59 61 62 62 63 64 64 64 65 65 65 64 65 65 63 63 63 63 63 63 63 62 63 62 62 62 62 62 61 60 59 60 60 60 59 56 56 57 56 55 54 52 51 47 43 42
24 22 21 21 21 20 21 22 21 23 21 21 21 21 21 22 19 23 21 27 29 29 28 29 28 28 29 29 29 28 29 30 30 30 30 31 31 32 32 33 34 34 37 38 39 44 45 48 52 55 56 58 60 61 61 61 61 61 60 59 59 59 59 59 59 59 59 59 59 60 60 61 61 61 61 60 59 62 62 61 60 59 59 58 58 57 55 55 54 54 52 51 51 50 48 45 43
22 21 20 20 21 21 22 23 21 23 22 21 22 23 22 21 20 20 21 27 28 27 28 28 28 28 28 29 28 28 28 29 29 30 30 31 31 31 32 33 34 34 36 38 39 43 44 48 52 55 56 56 57 58 58 58 58 57 57 57 56 56 56 56 56 56 56 57 57 57 58 58 60 60 60 59 59 59 59 59 59 57 57 57 56 55 56 55 55 55 52 52 50 51 51 49 46
23 21 23 22 21 22 23 24 24 23 23 20 23 24 21 21 20 22 24 21 26 28 28 28 28 27 27 28 28 28 28 28 29 28 30 31 30 31 32 32 33 33 35 36 38 40 44 48 50 54 55 56 56 56 56 55 55 55 54 54 54 54 53 53 53 53 54 54 54 55 55 56 57 58 59 59 59 58 58 57 56 56 55 56 56 55 55 54 54 53 51 52 50 50 49 47 47
25 21 24 26 21 23 25 29 24 23 19 20 22 25 21 20 20 21 22 26 28 28 28 27 27 27 27 27 27 27 27 28 29 28 29 29 30 30 31 32 32 33 34 35 37 40 42 45 49 53 54 55 55 54 53 51 50 49 48 48 48 49 49 48 50 50 50 50 50 51 51 52 54 55 56 57 57 56 56 55 55 54 54 55 54 54 54 53 53 52 49 50 51 50 48 48 44
24 23 26 24 24 22 22 24 25 26 20 20 21 21 18 19 20 20 25 27 28 28 28 27 27 27 27 26 26 26 27 27 28 27 28 29 30 30 30 32 32 33 34 34 36 38 40 41 45 50 51 52 51 49 48 47 45 44 43 42 42 42 42 42 42 43 45 47 48 48 48 50 51 52 53 54 54 54 54 54 54 53 54 54 53 53 52 51 51 51 49 49 50 50 48 46 46
23 24 22 25 21 22 22 24 25 27 20 18 21 19 17 19 19 21 27 28 28 27 27 27 27 26 26 26 26 26 26 26 26 27 28 29 29 30 30 32 32 31 33 34 35 36 38 40 42 44 47 48 48 47 45 44 42 41 40 39 39 37 38 37 38 39 39 39 40 42 43 45 47 49 50 52 52 52 52 52 52 53 54 53 52 52 51 51 51 52 49 47 47 48 47 44 44
24 23 23 21 22 22 22 23 25 24 25 24 23 19 18 19 19 23 28 28 28 27 27 26 26 26 26 26 26 25 26 26 26 27 28 28 29 29 29 30 31 31 31 33 34 35 37 39 40 41 42 45 46 46 45 43 41 38 37 37 36 36 35 34 35 35 36 36 37 38 39 40 42 44 47 47 47 48 49 50 50 52 52 52 51 51 50 49 49 50 49 46 43 44 47 45 44
24 23 23 24 23 22 22 23 24 24 23 23 24 24 24 24 24 23 27 28 27 27 27 26 26 26 26 26 26 26 26 25 27 28 29 28 29 29 29 29 30 31 30 31 33 34 35 37 39 39 40 41 44 43 42 40 39 38 37 36 36 35 34 33 33 33 34 34 35 35 37 38 39 40 41 43 43 43 44 44 46 49 50 49 48 48 48 48 48 48 47 48 47 45 44 44 41
25 27 25 24 24 24 26 25 26 25 24 24 24 24 24 24 24 24 29 28 27 27 26 27 27 26 26 26 26 26 26 25 30 29 28 28 29 28 29 29 30 30 29 30 32 33 33 34 36 37 38 39 39 40 40 40 37 36 35 34 33 33 33 32 31 31 31 32 33 34 35 35 37 38 39 40 40 40 40 40 41 43 45 44 44 44 45 44 45 46 46 43 45 44 40 36 36
24 25 25 24 26 22 24 24 25 25 25 24 21 23 23 23 23 27 30 28 27 27 26 26 25 26 26 26 26 26 26 30 28 27 26 27 28 29 29 29 30 29 29 29 30 31 33 33 34 35 36 37 37 37 37 36 36 35 33 32 32 31 31 30 29 29 29 30 30 31 32 34 35 36 37 38 38 38 38 37 38 39 40 39 39 40 40 40 40 41 42 41 40 38 35 35 36
24 22 24 23 22 25 25 25 26 25 25 23 23 23 24 24 23 29 28 28 28 28 27 26 25 26 26 27 26 26 26 26 25 25 26 25 28 28 28 28 28 28 28 28 30 31 32 32 33 34 35 36 37 36 36 35 35 35 34 33 31 29 29 29 28 27 26 25 26 27 29 30 32 33 34 35 36 36 36 36 36 36 37 38 37 37 37 38 38 39 40 39 40 40 37 38 35
22 23 22 21 25 24 24 27 26 25 24 23 24 23 24 25 27 27 27 28 28 28 28 28 27 26 26 26 26 26 26 26 25 25 24 24 25 25 27 27 27 28 28 28 28 29 30 31 32 33 33 35 36 36 35 34 34 33 33 32 31 29 27 26 24 23 22 22 21 23 24 26 27 28 30 32 33 33 34 34 34 35 35 36 36 36 36 36 37 38 39 39 40 38 38 37 36
25 24 23 22 24 24 24 25 26 26 26 25 23 24 24 24 24 25 26 27 26 26 26 26 27 29 29 28 28 28 25 25 25 24 25 24 24 24 25 26 26 26 27 27 28 28 28 30 31 32 32 33 33 35 35 35 33 32 32 31 29 27 25 22 20 18 19 20 20 21 22 23 24 24 26 27 28 29 31 32 32 33 33 34 35 35 34 35 36 37 37 37 37 37 36 36 36
26 27 23 21 22 23 25 26 25 25 26 26 23 24 22 24 25 25 26 26 25 27 25 25 26 26 26 25 25 26 27 26 25 24 25 25 24 24 24 25 26 25 25 26 27 27 28 29 30 31 31 32 32 33 33 33 33 32 31 27 22 21 20 20 18 16 17 17 18 20 22 22 23 23 24 25 25 25 26 27 28 28 29 30 32 33 34 34 35 35 35 36 36 36 35 35 34
25 26 27 23 24 26 26 26 27 23 22 25 24 22 19 23 23 25 26 26 26 26 26 25 26 26 26 26 26 26 25 25 25 25 25 24 24 23 23 24 25 25 24 25 25 25 26 27 28 29 29 30 32 31 31 29 27 26 24 22 20 18 17 19 20 19 18 18 19 18 20 21 22 22 23 23 24 24 24 25 25 25 26 26 27 28 30 31 32 34 34 34 34 35 36 33 34
25 28 28 27 26 26 27 26 27 25 27 27 24 23 20 20 23 25 25 25 25 25 25 26 25 25 25 25 26 26 26 26 25 24 24 24 24 23 22 23 23 22 24 23 24 23 24 24 25 25 26 26 27 28 27 27 23 22 21 20 19 17 17 18 18 17 19 19 18 19 19 19 21 22 22 22 23 23 24 23 24 24 24 25 25 25 26 28 30 31 31 32 32 33 34 33 33
27 29 28 27 26 27 27 27 26 25 23 24 24 26 21 20 23 25 25 24 24 25 24 25 25 25 25 26 26 27 26 26 25 24 23 24 23 23 23 22 22 22 23 22 22 22 23 23 22 21 21 21 22 24 23 23 22 19 18 18 18 19 19 19 19 19 18 18 18 18 18 18 19 21 21 22 22 22 23 23 23 23 23 23 23 24 25 26 27 28 29 28 29 30 32 33 32
28 28 27 26 26 26 27 25 24 22 20 20 22 24 20 22 25 23 24 24 23 24 25 24 24 25 25 25 26 26 26 26 26 25 25 24 24 24 23 21 21 22 22 22 20 20 21 21 21 19 20 20 21 20 19 20 19 18 17 18 19 18 18 17 18 18 18 18 18 18 18 17 19 18 20 21 22 22 22 22 22 22 22 22 22 22 24 24 25 25 26 27 27 27 28 29 30
29 27 26 26 25 24 23 22 20 18 15 21 23 23 22 19 24 23 23 25 23 25 25 25 25 25 25 25 25 26 24 25 24 24 24 24 24 23 22 20 20 20 21 19 20 19 20 19 18 18 18 19 19 20 20 20 20 18 18 19 19 19 19 19 17 17 17 18 17 17 17 18 18 18 20 19 21 21 21 21 21 21 21 21 21 21 21 22 22 23 23 25 25 24 25 26 26
27 25 24 26 25 19 18 13 19 16 17 17 20 22 22 20 20 23 24 24 24 25 25 24 24 24 25 25 25 25 24 24 24 23 22 22 21 21 21 20 19 19 19 18 19 19 19 18 17 17 18 19 19 20 20 20 20 20 20 20 20 19 19 19 17 18 18 18 18 17 17 17 17 19 18 18 19 20 20 20 20 20 20 21 20 20 21 21 21 21 20 21 22 23 24 24 24
27 26 26 24 16 15 15 14 15 17 18 19 22 22 21 21 23 21 21 24 25 26 26 25 24 24 24 25 25 25 25 24 24 23 23 22 21 20 19 19 20 19 19 18 18 19 17 17 16 17 18 19 19 20 20 20 20 20 20 20 20 19 19 20 19 19 19 18 18 18 17 17 17 18 17 18 19 20 19 19 19 19 19 20 20 21 21 22 20 20 20 20 22 22 22 23 22
25 25 25 22 16 14 6 10 7 14 16 18 20 21 20 22 21 24 23 23 27 27 27 27 25 24 24 24 25 24 25 24 23 23 23 22 22 22 21 20 20 21 19 20 20 19 18 17 17 17 18 19 19 19 19 19 20 20 20 20 20 19 19 20 19 19 19 19 19 19 18 17 18 18 18 19 19 20 19 19 19 19 20 20 20 20 20 20 21 19 19 19 20 21 21 23 22
25 27 26 26 19 10 12 9 15 16 16 15 17 16 16 19 21 26 26 26 26 26 27 28 27 25 25 25 25 25 24 24 24 23 23 22 23 22 21 21 21 20 20 21 20 19 18 18 18 17 18 19 19 19 19 19 20 20 21 21 20 20 20 20 20 20 19 19 19 19 19 18 18 19 19 19 20 19 19 19 19 19 19 19 19 19 20 19 20 18 18 18 18 20 20 20 19
25 26 27 23 24 22 16 13 11 8 14 13 14 16 19 20 23 27 26 25 25 26 26 28 28 25 25 25 25 24 23 23 24 23 23 23 23 23 22 21 21 21 20 21 20 20 20 19 18 18 18 19 20 20 20 19 20 20 21 21 21 21 21 21 21 21 20 20 19 19 19 19 19 19 20 20 20 20 20 19 19 19 19 19 18 19 18 18 19 17 17 17 17 22 19 19 18
25 26 23 26 26 21 17 15 13 12 13 19 11 19 23 23 22 25 25 25 25 25 26 27 27 25 25 24 24 23 23 23 24 23 23 23 24 23 22 21 21 21 21 20 21 21 20 21 20 19 19 19 19 20 20 19 20 20 20 19 20 20 20 19 19 20 20 21 20 20 19 20 21 20 21 21 20 20 19 19 18 18 18 18 18 18 18 18 19 17 17 17 17 18 18 17 17
26 23 26 27 27 26 22 18 11 5 14 16 17 18 19 19 19 24 24 25 25 25 25 26 26 25 24 24 24 23 23 23 23 23 23 23 24 23 22 22 21 21 20 20 21 22 22 21 19 19 19 19 19 19 19 19 19 19 20 20 20 20 19 20 20 20 20 20 20 20 20 20 19 21 20 21 19 18 18 19 17 17 17 17 17 16 17 17 18 15 17 16 16 18 17 16 16
26 26 29 26 19 19 23 18 16 13 11 13 14 19 18 19 20 22 22 24 24 25 25 25 25 25 24 24 23 23 23 23 23 23 24 24 24 23 21 21 21 21 22 21 22 22 22 21 20 19 19 19 19 20 20 20 20 20 21 20 20 20 20 20 20 20 20 20 19 19 19 19 20 20 18 18 18 18 17 17 16 16 15 15 16 15 16 16 16 15 15 15 16 16 15 15 15
29 28 26 27 23 20 18 21 17 18 12 9 16 16 18 21 20 22 21 23 24 25 24 25 25 25 24 23 23 23 23 23 23 23 24 24 23 22 20 20 20 21 21 22 22 22 20 21 21 20 21 21 20 20 20 19 20 20 21 20 20 20 20 20 19 19 18 19 19 19 19 18 19 19 19 19 17 17 17 16 15 15 15 15 14 14 15 15 15 14 13 13 13 14 13 12 13
24 24 24 24 22 25 24 21 20 18 10 11 14 17 17 22 23 22 21 22 24 25 25 25 25 25 25 24 23 23 23 23 23 23 24 24 23 22 21 20 21 22 23 23 22 21 21 21 20 21 19 19 19 19 18 19 19 18 16 15 16 17 17 18 18 18 18 18 20 20 19 19 18 19 18 18 17 18 17 16 14 14 14 13 13 13 13 13 12 12 12 12 12 12 12 11 11
25 25 24 24 24 22 20 21 23 17 17 17 13 18 17 25 24 23 23 24 25 26 26 25 25 25 25 24 23 23 23 22 23 24 24 24 23 22 21 22 22 22 22 21 21 20 20 20 20 20 19 18 17 18 18 18 16 16 14 14 15 15 14 14 14 14 16 17 18 19 19 18 18 18 18 17 17 17 16 15 13 13 13 12 12 13 12 12 11 11 11 12 11 11 11 11 11